User: anonymous   Login
Location: Newark
(48.5667°N, 7.8167°E)
Time: 12:20:13
(UTC+00:00)
Language:

LO-87 - Orbit

View from above orbital plane
View from above orbital plane
View from above satellite
View from above satellite

Ground track
Ground track

The orbit data is extracted from the following two-line orbital elements,

1 41557U 16033B   20191.12023536  .00000811  00000-0  32282-4 0  9991
2 41557  97.4041 281.2036 0013899  18.5255 341.6488 15.28063999229084
Epoch (UTC): 09 July 2020 02:53:08
Eccentricity: 0.0013899
inclination: 97.4041°
perigee height: 472 km
apogee height: 491 km
right ascension of ascending node: 281.2036°
argument of perigee: 18.5255°
revolutions per day: 15.28063999
mean anomaly at epoch: 341.6488°
orbit number at epoch: 22908

The dashed part of the orbit path shows where the satellite is in the earth's shadow,  

DLR